Hourly Weather Kiyaly

Today, 30 July, Friday

Time Temperature Precipitation Wind Pressure Humidity
00:00 +13°C° 0 mm 3 mps 746 mmHg 62%
01:00 +13°C° 0 mm 3 mps 746 mmHg 64%
02:00 +12°C° 0 mm 3 mps 746 mmHg 66%
03:00 +12°C° 0 mm 3 mps 746 mmHg 67%
04:00 +11°C° 0 mm 3 mps 746 mmHg 68%
05:00 +11°C° 0 mm 3 mps 746 mmHg 68%
06:00 +13°C° 0 mm 4 mps 747 mmHg 64%
07:00 +15°C° 0 mm 5 mps 747 mmHg 59%
08:00 +17°C° 0 mm 5 mps 747 mmHg 55%
09:00 +20°C° 0 mm 6 mps 747 mmHg 50%
10:00 +22°C° 0 mm 6 mps 747 mmHg 45%
11:00 +23°C° 0 mm 6 mps 747 mmHg 40%
12:00 +24°C° 0 mm 6 mps 746 mmHg 38%
13:00 +26°C° 0 mm 7 mps 746 mmHg 36%
14:00 +26°C° 0 mm 7 mps 746 mmHg 34%
15:00 +26°C° 0 mm 7 mps 746 mmHg 36%
16:00 +26°C° 0 mm 7 mps 745 mmHg 37%
17:00 +26°C° 0 mm 6 mps 745 mmHg 39%
18:00 +24°C° 0 mm 6 mps 745 mmHg 42%
19:00 +23°C° 0 mm 5 mps 745 mmHg 45%
20:00 +21°C° 0 mm 5 mps 745 mmHg 48%
21:00 +21°C° 0 mm 5 mps 745 mmHg 51%
22:00 +20°C° 0 mm 6 mps 745 mmHg 55%
23:00 +19°C° 0 mm 6 mps 745 mmHg 59%

Tomorrow, 31 July, Saturday

Time Temperature Precipitation Wind Pressure Humidity
00:00 +17°C° 0.1 mm 6 mps 744 mmHg 65%
01:00 +17°C° 0.1 mm 5 mps 744 mmHg 71%
02:00 +16°C° 0.1 mm 5 mps 744 mmHg 78%
03:00 +16°C° 0 mm 5 mps 743 mmHg 75%
04:00 +18°C° 0 mm 4 mps 743 mmHg 72%
05:00 +18°C° 0 mm 4 mps 743 mmHg 69%
06:00 +19°C° 0 mm 5 mps 743 mmHg 63%
07:00 +20°C° 0 mm 5 mps 743 mmHg 58%
08:00 +21°C° 0 mm 6 mps 743 mmHg 53%
09:00 +22°C° 0 mm 5 mps 743 mmHg 53%
10:00 +23°C° 0 mm 5 mps 744 mmHg 53%
11:00 +25°C° 0 mm 4 mps 744 mmHg 53%
12:00 +26°C° 0 mm 4 mps 744 mmHg 50%
13:00 +27°C° 0 mm 4 mps 744 mmHg 48%
14:00 +28°C° 0 mm 4 mps 744 mmHg 46%
15:00 +29°C° 0 mm 4 mps 744 mmHg 45%
16:00 +29°C° 0 mm 4 mps 744 mmHg 45%
17:00 +29°C° 0 mm 4 mps 745 mmHg 45%
18:00 +27°C° 0 mm 3 mps 745 mmHg 51%
19:00 +26°C° 0 mm 2 mps 745 mmHg 57%
20:00 +24°C° 0 mm 2 mps 745 mmHg 63%
21:00 +24°C° 0 mm 1 mps 746 mmHg 63%
22:00 +24°C° 0 mm 1 mps 746 mmHg 64%
23:00 +23°C° 0 mm 1 mps 746 mmHg 64%

Day after tomorrow, 1 August, Sunday

Time Temperature Precipitation Wind Pressure Humidity
00:00 +23°C° 0 mm 1 mps 746 mmHg 66%
01:00 +22°C° 0 mm 1 mps 746 mmHg 67%
02:00 +21°C° 0 mm 2 mps 746 mmHg 69%
03:00 +21°C° 0 mm 2 mps 746 mmHg 68%
04:00 +21°C° 0 mm 2 mps 746 mmHg 68%
05:00 +21°C° 0 mm 2 mps 746 mmHg 68%
06:00 +23°C° 0 mm 2 mps 746 mmHg 65%
07:00 +24°C° 0 mm 2 mps 746 mmHg 63%
08:00 +25°C° 0 mm 2 mps 746 mmHg 60%
09:00 +26°C° 0 mm 2 mps 746 mmHg 56%
10:00 +27°C° 0 mm 3 mps 746 mmHg 52%
11:00 +29°C° 0 mm 3 mps 745 mmHg 48%
12:00 +29°C° 0 mm 3 mps 745 mmHg 47%
13:00 +30°C° 0 mm 3 mps 745 mmHg 45%
14:00 +30°C° 0 mm 3 mps 744 mmHg 44%
15:00 +32°C° 0 mm 4 mps 744 mmHg 42%
16:00 +33°C° 0 mm 5 mps 743 mmHg 40%
17:00 +34°C° 0 mm 6 mps 743 mmHg 38%
18:00 +30°C° 0.1 mm 5 mps 743 mmHg 47%
19:00 +27°C° 0.1 mm 5 mps 743 mmHg 56%
20:00 +23°C° 0.1 mm 4 mps 743 mmHg 66%
21:00 +23°C° 0.1 mm 4 mps 743 mmHg 69%
22:00 +22°C° 0.1 mm 3 mps 743 mmHg 73%
23:00 +21°C° 0.1 mm 3 mps 743 mmHg 76%

2 August, Monday

Time Temperature Precipitation Wind Pressure Humidity
00:00 +21°C° 0.1 mm 3 mps 743 mmHg 79%
01:00 +20°C° 0.1 mm 3 mps 743 mmHg 83%
02:00 +20°C° 0.1 mm 3 mps 743 mmHg 86%
03:00 +19°C° 0 mm 3 mps 743 mmHg 87%
04:00 +19°C° 0 mm 3 mps 743 mmHg 89%
05:00 +19°C° 0 mm 3 mps 743 mmHg 90%
06:00 +20°C° 0 mm 3 mps 743 mmHg 83%
07:00 +21°C° 0 mm 4 mps 744 mmHg 76%
08:00 +23°C° 0 mm 4 mps 744 mmHg 69%
09:00 +25°C° 0 mm 5 mps 744 mmHg 60%
10:00 +27°C° 0 mm 5 mps 744 mmHg 52%
11:00 +28°C° 0 mm 6 mps 744 mmHg 43%
12:00 +28°C° 0 mm 6 mps 744 mmHg 41%
13:00 +29°C° 0 mm 6 mps 744 mmHg 40%
14:00 +29°C° 0 mm 7 mps 744 mmHg 38%
15:00 +28°C° 0 mm 6 mps 744 mmHg 40%
16:00 +28°C° 0 mm 6 mps 744 mmHg 42%
17:00 +27°C° 0 mm 5 mps 745 mmHg 44%
18:00 +26°C° 0 mm 5 mps 745 mmHg 47%
19:00 +25°C° 0 mm 4 mps 745 mmHg 51%
20:00 +23°C° 0 mm 4 mps 745 mmHg 54%
21:00 +22°C° 0 mm 3 mps 745 mmHg 57%
22:00 +21°C° 0 mm 3 mps 745 mmHg 60%
23:00 +19°C° 0 mm 3 mps 746 mmHg 63%

3 August, Tuesday

Time Temperature Precipitation Wind Pressure Humidity
00:00 +19°C° 0 mm 3 mps 746 mmHg 65%
01:00 +18°C° 0 mm 3 mps 746 mmHg 66%
02:00 +18°C° 0 mm 2 mps 746 mmHg 68%
03:00 +18°C° 0 mm 3 mps 746 mmHg 69%
04:00 +17°C° 0 mm 3 mps 747 mmHg 70%
05:00 +17°C° 0 mm 3 mps 747 mmHg 71%
06:00 +19°C° 0 mm 3 mps 747 mmHg 67%
07:00 +20°C° 0 mm 3 mps 747 mmHg 62%
08:00 +22°C° 0 mm 3 mps 748 mmHg 57%
09:00 +25°C° 0 mm 3 mps 748 mmHg 52%
10:00 +26°C° 0 mm 3 mps 748 mmHg 46%
11:00 +28°C° 0 mm 3 mps 748 mmHg 41%
12:00 +28°C° 0 mm 3 mps 748 mmHg 41%
13:00 +28°C° 0 mm 3 mps 748 mmHg 40%
14:00 +28°C° 0 mm 2 mps 748 mmHg 40%
15:00 +28°C° 0 mm 2 mps 747 mmHg 39%
16:00 +28°C° 0 mm 2 mps 747 mmHg 38%
17:00 +29°C° 0 mm 3 mps 747 mmHg 37%
18:00 +27°C° 0 mm 2 mps 747 mmHg 41%
19:00 +26°C° 0 mm 2 mps 747 mmHg 46%
20:00 +24°C° 0 mm 1 mps 747 mmHg 50%
21:00 +24°C° 0 mm 1 mps 747 mmHg 53%
22:00 +23°C° 0 mm 1 mps 747 mmHg 55%
23:00 +23°C° 0 mm 1 mps 748 mmHg 58%

4 August, Wednesday

Time Temperature Precipitation Wind Pressure Humidity
00:00 +23°C° 0 mm 1 mps 748 mmHg 60%
01:00 +21°C° 0 mm 2 mps 748 mmHg 63%
02:00 +21°C° 0 mm 2 mps 748 mmHg 66%
03:00 +20°C° 0 mm 2 mps 748 mmHg 69%
04:00 +19°C° 0 mm 2 mps 748 mmHg 73%
05:00 +19°C° 0 mm 2 mps 748 mmHg 76%
06:00 +20°C° 0 mm 2 mps 748 mmHg 73%
07:00 +21°C° 0 mm 2 mps 748 mmHg 70%
08:00 +23°C° 0 mm 2 mps 749 mmHg 67%
09:00 +25°C° 0 mm 2 mps 749 mmHg 59%
10:00 +27°C° 0 mm 2 mps 749 mmHg 51%
11:00 +29°C° 0 mm 2 mps 749 mmHg 43%
12:00 +29°C° 0 mm 2 mps 748 mmHg 44%
13:00 +28°C° 0 mm 2 mps 748 mmHg 45%
14:00 +28°C° 0 mm 2 mps 748 mmHg 45%
15:00 +27°C° 0.1 mm 2 mps 748 mmHg 51%
16:00 +26°C° 0.1 mm 2 mps 748 mmHg 57%
17:00 +25°C° 0.1 mm 2 mps 748 mmHg 62%
18:00 +25°C° 0 mm 1 mps 748 mmHg 65%
19:00 +24°C° 0 mm 1 mps 748 mmHg 67%
20:00 +23°C° 0 mm 1 mps 748 mmHg 69%
21:00 +23°C° 0 mm 1 mps 748 mmHg 71%
22:00 +22°C° 0 mm 1 mps 747 mmHg 72%
23:00 +22°C° 0 mm 1 mps 747 mmHg 73%
Show more